EVA18 RCTP-KSFO

Flight info

Callsign EVA18
Flight time N/A
Altitude 33000
Route MOLKA1A/05R MOLKA M750 MUKEP Y891 OVSUN/N0491F320 Y893 IGMIS/N0490F330 Y57 POROT Y809 IDLAN Y812 ADNAP OTR5 KALNA DCT 43N160E 44N170E/N0481F350 42N180E 40N170W 39N160W 38N150W/N0473F370 38N140W DCT ALLBE DCT PIRAT DCT OSI
Aircraft B77W/H-SDE1E2E3FGHIJ2J3J4J5M1RWXY/LB1D1

Departure

Time 2026-05-04 11:57
Airport Taiwan Taoyuan International Airport (RCTP)

Arrival

Time N/A
Airport San Francisco International Airport (KSFO)
Time Latitude Longitude Altitude Speed Heading
2026-05-04 11:12 25.07782 121.23672 106 ft 0 kts 319°
2026-05-04 11:44 25.07780 121.23673 105 ft 2 kts 319°
2026-05-04 11:44 25.07760 121.23692 104 ft 4 kts 319°
2026-05-04 11:44 25.07739 121.23712 104 ft 4 kts 319°
2026-05-04 11:45 25.07719 121.23731 104 ft 4 kts 319°
2026-05-04 11:45 25.07703 121.23746 103 ft 4 kts 309°
2026-05-04 11:45 25.07696 121.23752 103 ft 4 kts 257°
2026-05-04 11:45 25.07706 121.23769 102 ft 3 kts 229°
2026-05-04 11:46 25.07722 121.23791 104 ft 4 kts 229°
2026-05-04 11:46 25.07737 121.23809 103 ft 0 kts 229°
2026-05-04 11:49 25.07694 121.23754 104 ft 22 kts 229°
2026-05-04 11:50 25.07614 121.23704 109 ft 10 kts 168°
2026-05-04 11:50 25.07554 121.23740 107 ft 10 kts 141°
2026-05-04 11:50 25.07550 121.23745 108 ft 0 kts 141°
2026-05-04 11:51 25.07515 121.23771 107 ft 14 kts 155°
2026-05-04 11:51 25.07404 121.23707 103 ft 23 kts 227°
2026-05-04 11:51 25.07297 121.23572 105 ft 23 kts 229°
2026-05-04 11:52 25.07190 121.23436 106 ft 23 kts 228°
2026-05-04 11:52 25.07078 121.23294 106 ft 27 kts 229°
2026-05-04 11:52 25.06944 121.23124 107 ft 32 kts 229°
2026-05-04 11:52 25.06792 121.22931 106 ft 33 kts 229°
2026-05-04 11:53 25.06649 121.22750 106 ft 30 kts 229°
2026-05-04 11:53 25.06515 121.22578 107 ft 30 kts 229°
2026-05-04 11:53 25.06380 121.22406 107 ft 29 kts 229°
2026-05-04 11:53 25.06279 121.22281 107 ft 13 kts 226°
2026-05-04 11:55 25.06178 121.22279 106 ft 0 kts 141°
2026-05-04 11:55 25.06139 121.22318 103 ft 16 kts 127°
2026-05-04 11:56 25.06167 121.22462 102 ft 22 kts 50°
2026-05-04 11:56 25.06229 121.22543 102 ft 14 kts 50°
2026-05-04 11:56 25.06329 121.22670 101 ft 35 kts 49°
2026-05-04 11:56 25.06637 121.23060 101 ft 99 kts 49°
2026-05-04 11:57 25.07223 121.23801 100 ft 154 kts 49°
2026-05-04 11:57 25.07960 121.24792 380 ft 163 kts 52°
2026-05-04 11:57 25.08714 121.25758 824 ft 173 kts 53°
2026-05-04 11:57 25.09493 121.26763 1380 ft 173 kts 54°
2026-05-04 11:58 25.10279 121.27787 1843 ft 179 kts 54°
2026-05-04 11:58 25.11118 121.28890 1963 ft 198 kts 53°
2026-05-04 11:58 25.12097 121.30093 2065 ft 221 kts 50°
2026-05-04 11:58 25.13187 121.31348 2475 ft 230 kts 50°
2026-05-04 11:59 25.14322 121.32644 2941 ft 238 kts 50°
2026-05-04 11:59 25.15491 121.33979 3504 ft 244 kts 50°
2026-05-04 11:59 25.16680 121.35339 3970 ft 252 kts 50°
2026-05-04 11:59 25.17895 121.36730 4582 ft 254 kts 50°
2026-05-04 12:00 25.19126 121.38139 5109 ft 258 kts 50°
2026-05-04 12:00 25.20386 121.39590 5394 ft 271 kts 49°
2026-05-04 12:00 25.21707 121.41112 5883 ft 278 kts 47°
2026-05-04 12:00 25.23056 121.42662 6434 ft 277 kts 46°
2026-05-04 12:01 25.24405 121.44212 6836 ft 286 kts 45°
2026-05-04 12:01 25.25782 121.45801 7382 ft 279 kts 45°
2026-05-04 12:02 25.29403 121.58023 9473 ft 312 kts 76°
2026-05-04 12:03 25.29767 121.59578 9701 ft 317 kts 75°
2026-05-04 12:03 25.30333 121.61964 10083 ft 324 kts 76°
2026-05-04 12:03 25.30897 121.64433 10297 ft 339 kts 76°
2026-05-04 12:03 25.31464 121.67039 10432 ft 357 kts 77°
2026-05-04 12:04 25.32224 121.70704 10615 ft 381 kts 77°
2026-05-04 12:04 25.32620 121.72668 10705 ft 394 kts 78°
2026-05-04 12:04 25.33217 121.75685 10960 ft 407 kts 78°
2026-05-04 12:04 25.33823 121.78777 11397 ft 416 kts 78°
2026-05-04 12:05 25.34426 121.81880 11965 ft 421 kts 78°
2026-05-04 12:05 25.35044 121.85068 12603 ft 425 kts 78°
2026-05-04 12:05 25.35665 121.88277 13257 ft 429 kts 78°
2026-05-04 12:05 25.36293 121.91524 13893 ft 434 kts 78°
2026-05-04 12:06 25.36927 121.94807 14456 ft 439 kts 78°
2026-05-04 12:06 25.37567 121.98127 15024 ft 443 kts 78°
2026-05-04 12:06 25.38210 122.01463 15572 ft 448 kts 78°
2026-05-04 12:06 25.38862 122.04850 16112 ft 453 kts 78°
2026-05-04 12:07 25.39521 122.08274 16648 ft 457 kts 78°
2026-05-04 12:07 25.40185 122.11737 17183 ft 462 kts 78°
2026-05-04 12:07 25.40857 122.15236 17692 ft 467 kts 78°
2026-05-04 12:07 25.41533 122.18769 18206 ft 472 kts 78°
2026-05-04 12:08 25.42266 122.22279 18651 ft 476 kts 73°
2026-05-04 12:08 25.43297 122.25772 19080 ft 480 kts 69°
2026-05-04 12:08 25.44501 122.29231 19562 ft 482 kts 67°
2026-05-04 12:08 25.45759 122.32684 20039 ft 485 kts 67°
2026-05-04 12:09 25.47018 122.36168 20504 ft 489 kts 68°
2026-05-04 12:09 25.48257 122.39685 20946 ft 492 kts 68°
2026-05-04 12:09 25.49480 122.43248 21395 ft 496 kts 69°
2026-05-04 12:09 25.50688 122.46834 21832 ft 500 kts 69°
2026-05-04 12:10 25.51899 122.50460 22256 ft 503 kts 69°
2026-05-04 12:10 25.53112 122.54107 22681 ft 507 kts 69°
2026-05-04 12:10 25.54337 122.57788 23098 ft 510 kts 69°
2026-05-04 12:10 25.55570 122.61495 23498 ft 514 kts 69°
2026-05-04 12:11 25.56812 122.65224 23873 ft 517 kts 70°
2026-05-04 12:11 25.58046 122.68932 24186 ft 521 kts 70°
2026-05-04 12:11 25.59303 122.72708 24488 ft 524 kts 70°
2026-05-04 12:11 25.60569 122.76515 24797 ft 528 kts 70°
2026-05-04 12:12 25.61841 122.80347 25085 ft 531 kts 70°
2026-05-04 12:12 25.63120 122.84202 25381 ft 534 kts 69°
2026-05-04 12:12 25.64404 122.88072 25680 ft 538 kts 69°
2026-05-04 12:12 25.65711 122.91969 25986 ft 541 kts 69°
2026-05-04 12:13 25.67033 122.95881 26288 ft 544 kts 69°
2026-05-04 12:14 25.76420 123.23781 28227 ft 565 kts 69°
2026-05-04 12:15 25.77788 123.27873 28474 ft 568 kts 69°
2026-05-04 12:15 25.79146 123.31940 28714 ft 570 kts 69°
2026-05-04 12:15 25.80526 123.36075 28953 ft 573 kts 69°
2026-05-04 12:15 25.81913 123.40236 29195 ft 575 kts 69°
2026-05-04 12:16 25.83303 123.44409 29477 ft 576 kts 69°
2026-05-04 12:16 25.84692 123.48585 29831 ft 575 kts 69°
2026-05-04 12:16 25.86083 123.52744 30187 ft 572 kts 67°
2026-05-04 12:16 25.87924 123.56640 30316 ft 570 kts 50°
2026-05-04 12:17 25.90544 123.59893 30513 ft 562 kts 36°
2026-05-04 12:17 25.93697 123.62384 30790 ft 547 kts 20°
2026-05-04 12:17 25.97130 123.64088 30959 ft 540 kts 16°
2026-05-04 12:17 26.00590 123.65752 31125 ft 543 kts 17°
2026-05-04 12:18 26.03993 123.67451 31435 ft 543 kts 17°
2026-05-04 12:18 26.07426 123.69216 31784 ft 542 kts 18°
2026-05-04 12:18 26.10836 123.70999 32110 ft 541 kts 18°
2026-05-04 12:18 26.14240 123.72792 32398 ft 541 kts 18°
2026-05-04 12:19 26.17638 123.74584 32666 ft 540 kts 18°
2026-05-04 12:19 26.21035 123.76373 32932 ft 540 kts 18°
2026-05-04 12:19 26.24435 123.78160 33119 ft 541 kts 17°
2026-05-04 12:19 26.27855 123.79953 33172 ft 543 kts 17°
2026-05-04 12:20 26.34692 123.83545 33168 ft 540 kts 17°
2026-05-04 12:20 26.41414 123.87083 33182 ft 536 kts 17°
2026-05-04 12:21 26.48146 123.90627 33178 ft 534 kts 17°
2026-05-04 12:21 26.54871 123.94172 33173 ft 534 kts 17°
2026-05-04 12:22 26.61598 123.97723 33178 ft 535 kts 17°
2026-05-04 12:22 26.67934 124.02220 33168 ft 558 kts 43°
2026-05-04 12:23 26.72877 124.08991 33175 ft 565 kts 47°
2026-05-04 12:23 26.77771 124.15888 33191 ft 568 kts 46°
2026-05-04 12:24 26.82809 124.22727 33191 ft 570 kts 45°
2026-05-04 12:24 26.87908 124.29555 33188 ft 572 kts 45°
2026-05-04 12:25 26.92993 124.36401 33185 ft 572 kts 45°